owner,sensor,date,latitude,longitude,sea_surface_height_above_sea_level,qcFlag 
LUMCON,ioos:station:LUMCON:103:1,2009-03-02T20:00:00Z,30.1889,-90.1683,1.034,1111122 
LUMCON,ioos:station:LUMCON:103:1,2009-03-02T23:00:00Z,30.1889,-90.1683,1.078,1111122 
LUMCON,ioos:station:LUMCON:103:1,2009-03-03T00:00:00Z,30.1889,-90.1683,1.089,1111122 
LUMCON,ioos:station:LUMCON:103:1,2009-03-03T01:00:00Z,30.1889,-90.1683,1.11,1111122 
LUMCON,ioos:station:LUMCON:103:1,2009-03-03T02:00:00Z,30.1889,-90.1683,1.125,1111122 
LUMCON,ioos:station:LUMCON:103:1,2009-03-03T03:00:00Z,30.1889,-90.1683,1.148,1111122 
LUMCON,ioos:station:LUMCON:103:1,2009-03-03T05:00:00Z,30.1889,-90.1683,1.179,1111122 
LUMCON,ioos:station:LUMCON:103:1,2009-03-03T06:00:00Z,30.1889,-90.1683,1.185,1111122 
LUMCON,ioos:station:LUMCON:103:1,2009-03-03T08:00:00Z,30.1889,-90.1683,1.201,1111122 
LUMCON,ioos:station:LUMCON:103:1,2009-03-03T09:00:00Z,30.1889,-90.1683,1.219,1111122 
LUMCON,ioos:station:LUMCON:103:1,2009-03-03T11:00:00Z,30.1889,-90.1683,1.209,1111122 
LUMCON,ioos:station:LUMCON:103:1,2009-03-03T12:00:00Z,30.1889,-90.1683,1.213,1111122 
LUMCON,ioos:station:LUMCON:103:1,2009-03-03T14:00:00Z,30.1889,-90.1683,1.231,1111122 
LUMCON,ioos:station:LUMCON:103:1,2009-03-03T15:00:00Z,30.1889,-90.1683,1.239,1111122 
LUMCON,ioos:station:LUMCON:103:1,2009-03-03T16:00:00Z,30.1889,-90.1683,1.237,1111122 
LUMCON,ioos:station:LUMCON:103:1,2009-03-03T18:00:00Z,30.1889,-90.1683,1.25,1111122 
LUMCON,ioos:station:LUMCON:103:1,2009-03-03T19:00:00Z,30.1889,-90.1683,1.265,1111122 
LUMCON,ioos:station:LUMCON:103:1,2009-03-03T20:00:00Z,30.1889,-90.1683,1.278,1111122 
LUMCON,ioos:station:LUMCON:103:1,2009-03-03T22:00:00Z,30.1889,-90.1683,1.315,1111122 
LUMCON,ioos:station:LUMCON:103:1,2009-03-03T23:00:00Z,30.1889,-90.1683,1.331,1111122 
LUMCON,ioos:station:LUMCON:103:1,2009-03-04T00:00:00Z,30.1889,-90.1683,1.356,1111122 
LUMCON,ioos:station:LUMCON:103:1,2009-03-04T01:00:00Z,30.1889,-90.1683,1.379,1111122 
LUMCON,ioos:station:LUMCON:103:1,2009-03-04T02:00:00Z,30.1889,-90.1683,1.408,1111122 
LUMCON,ioos:station:LUMCON:103:1,2009-03-04T04:00:00Z,30.1889,-90.1683,1.451,1111122 
LUMCON,ioos:station:LUMCON:103:1,2009-03-04T05:00:00Z,30.1889,-90.1683,1.448,1111122 
LUMCON,ioos:station:LUMCON:103:1,2009-03-04T06:00:00Z,30.1889,-90.1683,1.464,1111122 
LUMCON,ioos:station:LUMCON:103:1,2009-03-04T08:00:00Z,30.1889,-90.1683,1.467,1111122 
LUMCON,ioos:station:LUMCON:103:1,2009-03-04T09:00:00Z,30.1889,-90.1683,1.46,1111122 
LUMCON,ioos:station:LUMCON:103:1,2009-03-04T11:00:00Z,30.1889,-90.1683,1.421,1111122 
LUMCON,ioos:station:LUMCON:103:1,2009-03-04T12:00:00Z,30.1889,-90.1683,1.395,1111122 
LUMCON,ioos:station:LUMCON:103:1,2009-03-04T13:00:00Z,30.1889,-90.1683,1.389,1111122 
LUMCON,ioos:station:LUMCON:103:1,2009-03-04T14:00:00Z,30.1889,-90.1683,1.377,1111122 
LUMCON,ioos:station:LUMCON:103:1,2009-03-04T15:00:00Z,30.1889,-90.1683,1.37,1111122 
LUMCON,ioos:station:LUMCON:103:1,2009-03-04T16:00:00Z,30.1889,-90.1683,1.347,1111122 
LUMCON,ioos:station:LUMCON:103:1,2009-03-04T17:00:00Z,30.1889,-90.1683,1.34,1111122 
LUMCON,ioos:station:LUMCON:103:1,2009-03-04T18:00:00Z,30.1889,-90.1683,1.338,1111122 
LUMCON,ioos:station:LUMCON:103:1,2009-03-04T19:00:00Z,30.1889,-90.1683,1.351,1111122 
LUMCON,ioos:station:LUMCON:103:1,2009-03-04T20:00:00Z,30.1889,-90.1683,1.372,1111122 
LUMCON,ioos:station:LUMCON:103:1,2009-03-04T21:00:00Z,30.1889,-90.1683,1.4,1111122 
LUMCON,ioos:station:LUMCON:103:1,2009-03-04T22:00:00Z,30.1889,-90.1683,1.406,1111122 
LUMCON,ioos:station:LUMCON:103:1,2009-03-04T23:00:00Z,30.1889,-90.1683,1.428,1111122 
LUMCON,ioos:station:LUMCON:103:1,2009-03-05T00:00:00Z,30.1889,-90.1683,1.455,1111122 
LUMCON,ioos:station:LUMCON:103:1,2009-03-05T01:00:00Z,30.1889,-90.1683,1.475,1111122 
LUMCON,ioos:station:LUMCON:103:1,2009-03-05T02:00:00Z,30.1889,-90.1683,1.49,1111122 
LUMCON,ioos:station:LUMCON:103:1,2009-03-05T03:00:00Z,30.1889,-90.1683,1.507,1111122 
LUMCON,ioos:station:LUMCON:103:1,2009-03-05T04:00:00Z,30.1889,-90.1683,1.528,1111122 
LUMCON,ioos:station:LUMCON:103:1,2009-03-05T05:00:00Z,30.1889,-90.1683,1.538,1111122 
LUMCON,ioos:station:LUMCON:103:1,2009-03-05T06:00:00Z,30.1889,-90.1683,1.559,1111122 
LUMCON,ioos:station:LUMCON:103:1,2009-03-05T07:00:00Z,30.1889,-90.1683,1.569,1111122 
LUMCON,ioos:station:LUMCON:103:1,2009-03-05T08:00:00Z,30.1889,-90.1683,1.568,1111122 
LUMCON,ioos:station:LUMCON:103:1,2009-03-05T09:00:00Z,30.1889,-90.1683,1.565,1111122 
LUMCON,ioos:station:LUMCON:103:1,2009-03-05T10:00:00Z,30.1889,-90.1683,1.56,1111122 
LUMCON,ioos:station:LUMCON:103:1,2009-03-05T11:00:00Z,30.1889,-90.1683,1.545,1111122 
LUMCON,ioos:station:LUMCON:103:1,2009-03-05T12:00:00Z,30.1889,-90.1683,1.526,1111122 
LUMCON,ioos:station:LUMCON:103:1,2009-03-05T13:00:00Z,30.1889,-90.1683,1.509,1111122 
LUMCON,ioos:station:LUMCON:103:1,2009-03-05T14:00:00Z,30.1889,-90.1683,1.491,1111122 
LUMCON,ioos:station:LUMCON:103:1,2009-03-05T15:00:00Z,30.1889,-90.1683,1.48,1111122 
LUMCON,ioos:station:LUMCON:103:1,2009-03-05T16:00:00Z,30.1889,-90.1683,1.458,1111122 
LUMCON,ioos:station:LUMCON:103:1,2009-03-05T17:00:00Z,30.1889,-90.1683,1.443,1111122 
LUMCON,ioos:station:LUMCON:103:1,2009-03-05T18:00:00Z,30.1889,-90.1683,1.427,1111122 
LUMCON,ioos:station:LUMCON:103:1,2009-03-05T19:00:00Z,30.1889,-90.1683,1.418,1111122 
LUMCON,ioos:station:LUMCON:103:1,2009-03-05T20:00:00Z,30.1889,-90.1683,1.419,1111122 
LUMCON,ioos:station:LUMCON:103:1,2009-03-05T21:00:00Z,30.1889,-90.1683,1.442,1111122 
LUMCON,ioos:station:LUMCON:103:1,2009-03-05T22:00:00Z,30.1889,-90.1683,1.473,1111122 
LUMCON,ioos:station:LUMCON:103:1,2009-03-05T23:00:00Z,30.1889,-90.1683,1.492,1111122 
LUMCON,ioos:station:LUMCON:103:1,2009-03-06T00:00:00Z,30.1889,-90.1683,1.511,1111122 
LUMCON,ioos:station:LUMCON:103:1,2009-03-06T01:00:00Z,30.1889,-90.1683,1.535,1111122 
LUMCON,ioos:station:LUMCON:103:1,2009-03-06T02:00:00Z,30.1889,-90.1683,1.556,1111122 
LUMCON,ioos:station:LUMCON:103:1,2009-03-06T03:00:00Z,30.1889,-90.1683,1.559,1111122 
LUMCON,ioos:station:LUMCON:103:1,2009-03-06T04:00:00Z,30.1889,-90.1683,1.579,1111122 
LUMCON,ioos:station:LUMCON:103:1,2009-03-06T05:00:00Z,30.1889,-90.1683,1.599,1111122 
LUMCON,ioos:station:LUMCON:103:1,2009-03-06T06:00:00Z,30.1889,-90.1683,1.613,1111122 
LUMCON,ioos:station:LUMCON:103:1,2009-03-06T07:00:00Z,30.1889,-90.1683,1.638,1111122 
LUMCON,ioos:station:LUMCON:103:1,2009-03-06T08:00:00Z,30.1889,-90.1683,1.639,1111122 
LUMCON,ioos:station:LUMCON:103:1,2009-03-06T10:00:00Z,30.1889,-90.1683,1.644,1111122 
LUMCON,ioos:station:LUMCON:103:1,2009-03-06T11:00:00Z,30.1889,-90.1683,1.628,1111122 
LUMCON,ioos:station:LUMCON:103:1,2009-03-06T12:00:00Z,30.1889,-90.1683,1.615,1111122 
LUMCON,ioos:station:LUMCON:103:1,2009-03-06T13:00:00Z,30.1889,-90.1683,1.594,1111122 
LUMCON,ioos:station:LUMCON:103:1,2009-03-06T14:00:00Z,30.1889,-90.1683,1.573,1111122 
LUMCON,ioos:station:LUMCON:103:1,2009-03-06T17:00:00Z,30.1889,-90.1683,1.514,1111122 
LUMCON,ioos:station:LUMCON:103:1,2009-03-06T18:00:00Z,30.1889,-90.1683,1.5,1111122 
LUMCON,ioos:station:LUMCON:103:1,2009-03-06T21:00:00Z,30.1889,-90.1683,1.47,1111122 
LUMCON,ioos:station:LUMCON:103:1,2009-03-06T23:00:00Z,30.1889,-90.1683,1.496,1111122 
LUMCON,ioos:station:LUMCON:103:1,2009-03-07T00:00:00Z,30.1889,-90.1683,1.528,1111122 
LUMCON,ioos:station:LUMCON:103:1,2009-03-07T01:00:00Z,30.1889,-90.1683,1.557,1111122 
LUMCON,ioos:station:LUMCON:103:1,2009-03-07T02:00:00Z,30.1889,-90.1683,1.564,1111122 
LUMCON,ioos:station:LUMCON:103:1,2009-03-07T16:00:00Z,30.1889,-90.1683,1.605,1111122 
LUMCON,ioos:station:LUMCON:103:1,2009-03-07T17:00:00Z,30.1889,-90.1683,1.593,1111122 
LUMCON,ioos:station:LUMCON:103:1,2009-03-07T18:00:00Z,30.1889,-90.1683,1.58,1111122 
LUMCON,ioos:station:LUMCON:103:1,2009-03-07T20:00:00Z,30.1889,-90.1683,1.546,1111122 
LUMCON,ioos:station:LUMCON:103:1,2009-03-07T22:00:00Z,30.1889,-90.1683,1.533,1111122 
LUMCON,ioos:station:LUMCON:103:1,2009-03-07T23:00:00Z,30.1889,-90.1683,1.555,1111122 
LUMCON,ioos:station:LUMCON:103:1,2009-03-08T03:00:00Z,30.1889,-90.1683,1.621,1111122 
LUMCON,ioos:station:LUMCON:103:1,2009-03-08T13:00:00Z,30.1889,-90.1683,1.745,1111122 
LUMCON,ioos:station:LUMCON:103:1,2009-03-08T14:00:00Z,30.1889,-90.1683,1.734,1111122 
LUMCON,ioos:station:LUMCON:103:1,2009-03-08T19:00:00Z,30.1889,-90.1683,1.635,1111122 
LUMCON,ioos:station:LUMCON:103:1,2009-03-08T20:00:00Z,30.1889,-90.1683,1.62,1111122 
LUMCON,ioos:station:LUMCON:103:1,2009-03-08T21:00:00Z,30.1889,-90.1683,1.607,1111122 
LUMCON,ioos:station:LUMCON:103:1,2009-03-08T22:00:00Z,30.1889,-90.1683,1.601,1111122 
LUMCON,ioos:station:LUMCON:103:1,2009-03-08T23:00:00Z,30.1889,-90.1683,1.594,1111122 
LUMCON,ioos:station:LUMCON:103:1,2009-03-09T00:00:00Z,30.1889,-90.1683,1.596,1111122 
LUMCON,ioos:station:LUMCON:103:1,2009-03-09T01:00:00Z,30.1889,-90.1683,1.608,1111122 
LUMCON,ioos:station:LUMCON:103:1,2009-03-09T02:00:00Z,30.1889,-90.1683,1.625,1111122 
LUMCON,ioos:station:LUMCON:103:1,2009-03-09T04:00:00Z,30.1889,-90.1683,1.651,1111122 
LUMCON,ioos:station:LUMCON:103:1,2009-03-09T05:00:00Z,30.1889,-90.1683,1.664,1111122 
LUMCON,ioos:station:LUMCON:103:1,2009-03-09T06:00:00Z,30.1889,-90.1683,1.685,1111122 
LUMCON,ioos:station:LUMCON:103:1,2009-03-09T07:00:00Z,30.1889,-90.1683,1.697,1111122 
LUMCON,ioos:station:LUMCON:103:1,2009-03-09T08:00:00Z,30.1889,-90.1683,1.719,1111122 
LUMCON,ioos:station:LUMCON:103:1,2009-03-09T09:00:00Z,30.1889,-90.1683,1.731,1111122 
LUMCON,ioos:station:LUMCON:103:1,2009-03-09T11:00:00Z,30.1889,-90.1683,1.756,1111122 
LUMCON,ioos:station:LUMCON:103:1,2009-03-09T12:00:00Z,30.1889,-90.1683,1.753,1111122 
LUMCON,ioos:station:LUMCON:103:1,2009-03-09T14:00:00Z,30.1889,-90.1683,1.73,1111122 
LUMCON,ioos:station:LUMCON:103:1,2009-03-09T16:00:00Z,30.1889,-90.1683,1.684,1111122 
LUMCON,ioos:station:LUMCON:103:1,2009-03-09T17:00:00Z,30.1889,-90.1683,1.665,1111122 
LUMCON,ioos:station:LUMCON:103:1,2009-03-09T18:00:00Z,30.1889,-90.1683,1.645,1111122 
LUMCON,ioos:station:LUMCON:103:1,2009-03-09T19:00:00Z,30.1889,-90.1683,1.632,1111122 
LUMCON,ioos:station:LUMCON:103:1,2009-03-09T21:00:00Z,30.1889,-90.1683,1.604,1111122 
LUMCON,ioos:station:LUMCON:103:1,2009-03-09T22:00:00Z,30.1889,-90.1683,1.599,1111122 
LUMCON,ioos:station:LUMCON:103:1,2009-03-09T23:00:00Z,30.1889,-90.1683,1.597,1111122 
LUMCON,ioos:station:LUMCON:103:1,2009-03-10T00:00:00Z,30.1889,-90.1683,1.61,1111122 
LUMCON,ioos:station:LUMCON:103:1,2009-03-10T02:00:00Z,30.1889,-90.1683,1.638,1111122 
LUMCON,ioos:station:LUMCON:103:1,2009-03-10T04:00:00Z,30.1889,-90.1683,1.657,1111122 
LUMCON,ioos:station:LUMCON:103:1,2009-03-10T05:00:00Z,30.1889,-90.1683,1.667,1111122 
LUMCON,ioos:station:LUMCON:103:1,2009-03-10T07:00:00Z,30.1889,-90.1683,1.689,1111122 
LUMCON,ioos:station:LUMCON:103:1,2009-03-10T09:00:00Z,30.1889,-90.1683,1.722,1111122 
LUMCON,ioos:station:LUMCON:103:1,2009-03-10T10:00:00Z,30.1889,-90.1683,1.736,1111122 
LUMCON,ioos:station:LUMCON:103:1,2009-03-10T12:00:00Z,30.1889,-90.1683,1.755,1111122 
LUMCON,ioos:station:LUMCON:103:1,2009-03-10T13:00:00Z,30.1889,-90.1683,1.756,1111122 
LUMCON,ioos:station:LUMCON:103:1,2009-03-10T14:00:00Z,30.1889,-90.1683,1.757,1111122 
LUMCON,ioos:station:LUMCON:103:1,2009-03-10T15:00:00Z,30.1889,-90.1683,1.747,1111122 
LUMCON,ioos:station:LUMCON:103:1,2009-03-10T16:00:00Z,30.1889,-90.1683,1.72,1111122 
LUMCON,ioos:station:LUMCON:103:1,2009-03-10T18:00:00Z,30.1889,-90.1683,1.683,1111122 
LUMCON,ioos:station:LUMCON:103:1,2009-03-10T19:00:00Z,30.1889,-90.1683,1.67,1111122 
LUMCON,ioos:station:LUMCON:103:1,2009-03-10T20:00:00Z,30.1889,-90.1683,1.659,1111122 
LUMCON,ioos:station:LUMCON:103:1,2009-03-10T22:00:00Z,30.1889,-90.1683,1.63,1111122 
LUMCON,ioos:station:LUMCON:103:1,2009-03-11T00:00:00Z,30.1889,-90.1683,1.624,1111122 
LUMCON,ioos:station:LUMCON:103:1,2009-03-11T02:00:00Z,30.1889,-90.1683,1.643,1111122 
LUMCON,ioos:station:LUMCON:103:1,2009-03-11T03:00:00Z,30.1889,-90.1683,1.638,1111122 
LUMCON,ioos:station:LUMCON:103:1,2009-03-11T04:00:00Z,30.1889,-90.1683,1.634,1111122 
LUMCON,ioos:station:LUMCON:103:1,2009-03-11T05:00:00Z,30.1889,-90.1683,1.635,1111122 
LUMCON,ioos:station:LUMCON:103:1,2009-03-11T06:00:00Z,30.1889,-90.1683,1.632,1111122 
LUMCON,ioos:station:LUMCON:103:1,2009-03-11T07:00:00Z,30.1889,-90.1683,1.624,1111122 
LUMCON,ioos:station:LUMCON:103:1,2009-03-11T08:00:00Z,30.1889,-90.1683,1.634,1111122 
LUMCON,ioos:station:LUMCON:103:1,2009-03-11T09:00:00Z,30.1889,-90.1683,1.645,1111122 
LUMCON,ioos:station:LUMCON:103:1,2009-03-11T10:00:00Z,30.1889,-90.1683,1.657,1111122 
LUMCON,ioos:station:LUMCON:103:1,2009-03-11T11:00:00Z,30.1889,-90.1683,1.673,1111122 
LUMCON,ioos:station:LUMCON:103:1,2009-03-11T12:00:00Z,30.1889,-90.1683,1.688,1111122 
LUMCON,ioos:station:LUMCON:103:1,2009-03-11T13:00:00Z,30.1889,-90.1683,1.69,1111122 
LUMCON,ioos:station:LUMCON:103:1,2009-03-11T14:00:00Z,30.1889,-90.1683,1.7,1111122 
LUMCON,ioos:station:LUMCON:103:1,2009-03-11T16:00:00Z,30.1889,-90.1683,1.692,1111122 
LUMCON,ioos:station:LUMCON:103:1,2009-03-11T17:00:00Z,30.1889,-90.1683,1.684,1111122 
LUMCON,ioos:station:LUMCON:103:1,2009-03-11T18:00:00Z,30.1889,-90.1683,1.661,1111122 
LUMCON,ioos:station:LUMCON:103:1,2009-03-11T19:00:00Z,30.1889,-90.1683,1.645,1111122 
LUMCON,ioos:station:LUMCON:103:1,2009-03-11T20:00:00Z,30.1889,-90.1683,1.638,1111122 
LUMCON,ioos:station:LUMCON:103:1,2009-03-11T21:00:00Z,30.1889,-90.1683,1.633,1111122 
LUMCON,ioos:station:LUMCON:103:1,2009-03-11T22:00:00Z,30.1889,-90.1683,1.618,1111122 
LUMCON,ioos:station:LUMCON:103:1,2009-03-11T23:00:00Z,30.1889,-90.1683,1.621,1111122 
LUMCON,ioos:station:LUMCON:103:1,2009-03-12T00:00:00Z,30.1889,-90.1683,1.643,1111122 
LUMCON,ioos:station:LUMCON:103:1,2009-03-12T01:00:00Z,30.1889,-90.1683,1.626,1111122 
LUMCON,ioos:station:LUMCON:103:1,2009-03-12T02:00:00Z,30.1889,-90.1683,1.63,1111122 
LUMCON,ioos:station:LUMCON:103:1,2009-03-12T03:00:00Z,30.1889,-90.1683,1.617,1111122 
LUMCON,ioos:station:LUMCON:103:1,2009-03-12T04:00:00Z,30.1889,-90.1683,1.603,1111122 
LUMCON,ioos:station:LUMCON:103:1,2009-03-12T05:00:00Z,30.1889,-90.1683,1.591,1111122 
LUMCON,ioos:station:LUMCON:103:1,2009-03-12T06:00:00Z,30.1889,-90.1683,1.569,1111122 
LUMCON,ioos:station:LUMCON:103:1,2009-03-12T07:00:00Z,30.1889,-90.1683,1.554,1111122 
LUMCON,ioos:station:LUMCON:103:1,2009-03-12T08:00:00Z,30.1889,-90.1683,1.545,1111122 
LUMCON,ioos:station:LUMCON:103:1,2009-03-12T09:00:00Z,30.1889,-90.1683,1.54,1111122 
LUMCON,ioos:station:LUMCON:103:1,2009-03-12T10:00:00Z,30.1889,-90.1683,1.521,1111122 
LUMCON,ioos:station:LUMCON:103:1,2009-03-12T11:00:00Z,30.1889,-90.1683,1.541,1111122 
LUMCON,ioos:station:LUMCON:103:1,2009-03-12T12:00:00Z,30.1889,-90.1683,1.57,1111122 
LUMCON,ioos:station:LUMCON:103:1,2009-03-12T13:00:00Z,30.1889,-90.1683,1.562,1111122 
LUMCON,ioos:station:LUMCON:103:1,2009-03-12T14:00:00Z,30.1889,-90.1683,1.575,1111122 
LUMCON,ioos:station:LUMCON:103:1,2009-03-12T15:00:00Z,30.1889,-90.1683,1.591,1111122 
LUMCON,ioos:station:LUMCON:103:1,2009-03-12T16:00:00Z,30.1889,-90.1683,1.58,1111122 
LUMCON,ioos:station:LUMCON:103:1,2009-03-12T17:00:00Z,30.1889,-90.1683,1.59,1111122 
LUMCON,ioos:station:LUMCON:103:1,2009-03-12T18:00:00Z,30.1889,-90.1683,1.63,1111122 
LUMCON,ioos:station:LUMCON:103:1,2009-03-12T19:00:00Z,30.1889,-90.1683,1.619,1111122 
LUMCON,ioos:station:LUMCON:103:1,2009-03-12T20:00:00Z,30.1889,-90.1683,1.632,1111122 
LUMCON,ioos:station:LUMCON:103:1,2009-03-12T21:00:00Z,30.1889,-90.1683,1.656,1111122 
LUMCON,ioos:station:LUMCON:103:1,2009-03-13T21:00:00Z,30.1889,-90.1683,1.754,1111122 
LUMCON,ioos:station:LUMCON:103:1,2009-03-13T22:00:00Z,30.1889,-90.1683,1.766,1111122 
LUMCON,ioos:station:LUMCON:103:1,2009-03-13T23:00:00Z,30.1889,-90.1683,1.766,1111122 
LUMCON,ioos:station:LUMCON:103:1,2009-03-14T00:00:00Z,30.1889,-90.1683,1.787,1111122 
LUMCON,ioos:station:LUMCON:103:1,2009-03-14T01:00:00Z,30.1889,-90.1683,1.791,1111122 
LUMCON,ioos:station:LUMCON:103:1,2009-03-14T02:00:00Z,30.1889,-90.1683,1.793,1111122 
LUMCON,ioos:station:LUMCON:103:1,2009-03-14T03:00:00Z,30.1889,-90.1683,1.806,1111122 
LUMCON,ioos:station:LUMCON:103:1,2009-03-14T04:00:00Z,30.1889,-90.1683,1.811,1111122 
LUMCON,ioos:station:LUMCON:103:1,2009-03-14T06:00:00Z,30.1889,-90.1683,1.787,1111122 
LUMCON,ioos:station:LUMCON:103:1,2009-03-14T07:00:00Z,30.1889,-90.1683,1.772,1111122 
LUMCON,ioos:station:LUMCON:103:1,2009-03-14T08:00:00Z,30.1889,-90.1683,1.745,1111122 
LUMCON,ioos:station:LUMCON:103:1,2009-03-14T10:00:00Z,30.1889,-90.1683,1.717,1111122 
LUMCON,ioos:station:LUMCON:103:1,2009-03-14T11:00:00Z,30.1889,-90.1683,1.698,1111122 
LUMCON,ioos:station:LUMCON:103:1,2009-03-14T12:00:00Z,30.1889,-90.1683,1.691,1111122 
LUMCON,ioos:station:LUMCON:103:1,2009-03-14T13:00:00Z,30.1889,-90.1683,1.679,1111122 
LUMCON,ioos:station:LUMCON:103:1,2009-03-14T14:00:00Z,30.1889,-90.1683,1.666,1111122 
LUMCON,ioos:station:LUMCON:103:1,2009-03-14T17:00:00Z,30.1889,-90.1683,1.666,1111122 
LUMCON,ioos:station:LUMCON:103:1,2009-03-14T18:00:00Z,30.1889,-90.1683,1.663,1111122 
LUMCON,ioos:station:LUMCON:103:1,2009-03-14T19:00:00Z,30.1889,-90.1683,1.692,1111122 
LUMCON,ioos:station:LUMCON:103:1,2009-03-14T22:00:00Z,30.1889,-90.1683,1.724,1111122 
LUMCON,ioos:station:LUMCON:103:1,2009-03-14T23:00:00Z,30.1889,-90.1683,1.725,1111122 
LUMCON,ioos:station:LUMCON:103:1,2009-03-15T00:00:00Z,30.1889,-90.1683,1.737,1111122 
LUMCON,ioos:station:LUMCON:103:1,2009-03-15T02:00:00Z,30.1889,-90.1683,1.753,1111122 
LUMCON,ioos:station:LUMCON:103:1,2009-03-15T03:00:00Z,30.1889,-90.1683,1.768,1111122 
LUMCON,ioos:station:LUMCON:103:1,2009-03-15T04:00:00Z,30.1889,-90.1683,1.737,1111122 
LUMCON,ioos:station:LUMCON:103:1,2009-03-15T05:00:00Z,30.1889,-90.1683,1.718,1111122 
LUMCON,ioos:station:LUMCON:103:1,2009-03-15T06:00:00Z,30.1889,-90.1683,1.721,1111122 
LUMCON,ioos:station:LUMCON:103:1,2009-03-15T08:00:00Z,30.1889,-90.1683,1.686,1111122 
LUMCON,ioos:station:LUMCON:103:1,2009-03-15T09:00:00Z,30.1889,-90.1683,1.669,1111122 
LUMCON,ioos:station:LUMCON:103:1,2009-03-15T10:00:00Z,30.1889,-90.1683,1.666,1111122 
LUMCON,ioos:station:LUMCON:103:1,2009-03-15T12:00:00Z,30.1889,-90.1683,1.63,1111122 
LUMCON,ioos:station:LUMCON:103:1,2009-03-15T15:00:00Z,30.1889,-90.1683,1.603,1111122 
LUMCON,ioos:station:LUMCON:103:1,2009-03-15T16:00:00Z,30.1889,-90.1683,1.603,1111122 
LUMCON,ioos:station:LUMCON:103:1,2009-03-15T17:00:00Z,30.1889,-90.1683,1.62,1111122 
LUMCON,ioos:station:LUMCON:103:1,2009-03-15T19:00:00Z,30.1889,-90.1683,1.641,1111122 
LUMCON,ioos:station:LUMCON:103:1,2009-03-15T21:00:00Z,30.1889,-90.1683,1.681,1111122 
LUMCON,ioos:station:LUMCON:103:1,2009-03-15T22:00:00Z,30.1889,-90.1683,1.693,1111122 
LUMCON,ioos:station:LUMCON:103:1,2009-03-15T23:00:00Z,30.1889,-90.1683,1.722,1111122 
LUMCON,ioos:station:LUMCON:103:1,2009-03-16T01:00:00Z,30.1889,-90.1683,1.74,1111122 
LUMCON,ioos:station:LUMCON:103:1,2009-03-16T02:00:00Z,30.1889,-90.1683,1.758,1111122 
LUMCON,ioos:station:LUMCON:103:1,2009-03-16T04:00:00Z,30.1889,-90.1683,1.76,1111122 
LUMCON,ioos:station:LUMCON:103:1,2009-03-16T06:00:00Z,30.1889,-90.1683,1.72,1111122 
LUMCON,ioos:station:LUMCON:103:1,2009-03-16T07:00:00Z,30.1889,-90.1683,1.719,1111122 
LUMCON,ioos:station:LUMCON:103:1,2009-03-16T08:00:00Z,30.1889,-90.1683,1.728,1111122 
LUMCON,ioos:station:LUMCON:103:1,2009-03-16T09:00:00Z,30.1889,-90.1683,1.676,1111122 
LUMCON,ioos:station:LUMCON:103:1,2009-03-16T11:00:00Z,30.1889,-90.1683,1.669,1111122 
LUMCON,ioos:station:LUMCON:103:1,2009-03-16T13:00:00Z,30.1889,-90.1683,1.648,1111122 
LUMCON,ioos:station:LUMCON:103:1,2009-03-16T14:00:00Z,30.1889,-90.1683,1.618,1111122 
LUMCON,ioos:station:LUMCON:103:1,2009-03-16T15:00:00Z,30.1889,-90.1683,1.594,1111122 
LUMCON,ioos:station:LUMCON:103:1,2009-03-16T16:00:00Z,30.1889,-90.1683,1.614,1111122 
LUMCON,ioos:station:LUMCON:103:1,2009-03-16T18:00:00Z,30.1889,-90.1683,1.589,1111122 
LUMCON,ioos:station:LUMCON:103:1,2009-03-16T19:00:00Z,30.1889,-90.1683,1.632,1111122 
LUMCON,ioos:station:LUMCON:103:1,2009-03-16T21:00:00Z,30.1889,-90.1683,1.654,1111122 
LUMCON,ioos:station:LUMCON:103:1,2009-03-16T23:00:00Z,30.1889,-90.1683,1.691,1111122 
LUMCON,ioos:station:LUMCON:103:1,2009-03-17T01:00:00Z,30.1889,-90.1683,1.733,1111122 
LUMCON,ioos:station:LUMCON:103:1,2009-03-17T02:00:00Z,30.1889,-90.1683,1.745,1111122 
LUMCON,ioos:station:LUMCON:103:1,2009-03-17T03:00:00Z,30.1889,-90.1683,1.746,1111122 
LUMCON,ioos:station:LUMCON:103:1,2009-03-17T05:00:00Z,30.1889,-90.1683,1.742,1111122 
LUMCON,ioos:station:LUMCON:103:1,2009-03-17T07:00:00Z,30.1889,-90.1683,1.72,1111122 
LUMCON,ioos:station:LUMCON:103:1,2009-03-17T08:00:00Z,30.1889,-90.1683,1.688,1111122 
LUMCON,ioos:station:LUMCON:103:1,2009-03-17T09:00:00Z,30.1889,-90.1683,1.69,1111122 
LUMCON,ioos:station:LUMCON:103:1,2009-03-17T10:00:00Z,30.1889,-90.1683,1.661,1111122 
LUMCON,ioos:station:LUMCON:103:1,2009-03-17T11:00:00Z,30.1889,-90.1683,1.649,1111122 
LUMCON,ioos:station:LUMCON:103:1,2009-03-17T12:00:00Z,30.1889,-90.1683,1.649,1111122 
LUMCON,ioos:station:LUMCON:103:1,2009-03-17T14:00:00Z,30.1889,-90.1683,1.621,1111122 
LUMCON,ioos:station:LUMCON:103:1,2009-03-17T15:00:00Z,30.1889,-90.1683,1.604,1111122 
LUMCON,ioos:station:LUMCON:103:1,2009-03-17T16:00:00Z,30.1889,-90.1683,1.6,1111122 
LUMCON,ioos:station:LUMCON:103:1,2009-03-17T18:00:00Z,30.1889,-90.1683,1.588,1111122 
LUMCON,ioos:station:LUMCON:103:1,2009-03-17T19:00:00Z,30.1889,-90.1683,1.589,1111122 
LUMCON,ioos:station:LUMCON:103:1,2009-03-17T21:00:00Z,30.1889,-90.1683,1.629,1111122 
LUMCON,ioos:station:LUMCON:103:1,2009-03-17T22:00:00Z,30.1889,-90.1683,1.636,1111122 
LUMCON,ioos:station:LUMCON:103:1,2009-03-18T00:00:00Z,30.1889,-90.1683,1.674,1111122 
LUMCON,ioos:station:LUMCON:103:1,2009-03-18T02:00:00Z,30.1889,-90.1683,1.716,1111122 
LUMCON,ioos:station:LUMCON:103:1,2009-03-18T03:00:00Z,30.1889,-90.1683,1.73,1111122 
LUMCON,ioos:station:LUMCON:103:1,2009-03-18T04:00:00Z,30.1889,-90.1683,1.742,1111122 
LUMCON,ioos:station:LUMCON:103:1,2009-03-18T06:00:00Z,30.1889,-90.1683,1.762,1111122 
LUMCON,ioos:station:LUMCON:103:1,2009-03-18T07:00:00Z,30.1889,-90.1683,1.75,1111122 
LUMCON,ioos:station:LUMCON:103:1,2009-03-18T08:00:00Z,30.1889,-90.1683,1.735,1111122 
LUMCON,ioos:station:LUMCON:103:1,2009-03-18T10:00:00Z,30.1889,-90.1683,1.701,1111122 
LUMCON,ioos:station:LUMCON:103:1,2009-03-18T11:00:00Z,30.1889,-90.1683,1.682,1111122 
LUMCON,ioos:station:LUMCON:103:1,2009-03-18T12:00:00Z,30.1889,-90.1683,1.663,1111122 
LUMCON,ioos:station:LUMCON:103:1,2009-03-18T14:00:00Z,30.1889,-90.1683,1.626,1111122 
LUMCON,ioos:station:LUMCON:103:1,2009-03-18T15:00:00Z,30.1889,-90.1683,1.613,1111122 
LUMCON,ioos:station:LUMCON:103:1,2009-03-18T18:00:00Z,30.1889,-90.1683,1.586,1111122 
LUMCON,ioos:station:LUMCON:103:1,2009-03-18T19:00:00Z,30.1889,-90.1683,1.58,1111122 
LUMCON,ioos:station:LUMCON:103:1,2009-03-18T20:00:00Z,30.1889,-90.1683,1.59,1111122 
LUMCON,ioos:station:LUMCON:103:1,2009-03-18T21:00:00Z,30.1889,-90.1683,1.619,1111122 
LUMCON,ioos:station:LUMCON:103:1,2009-03-18T23:00:00Z,30.1889,-90.1683,1.661,1111122 
LUMCON,ioos:station:LUMCON:103:1,2009-03-19T00:00:00Z,30.1889,-90.1683,1.689,1111122 
LUMCON,ioos:station:LUMCON:103:1,2009-03-19T01:00:00Z,30.1889,-90.1683,1.703,1111122 
LUMCON,ioos:station:LUMCON:103:1,2009-03-19T02:00:00Z,30.1889,-90.1683,1.728,1111122 
LUMCON,ioos:station:LUMCON:103:1,2009-03-19T04:00:00Z,30.1889,-90.1683,1.773,1111122 
LUMCON,ioos:station:LUMCON:103:1,2009-03-19T06:00:00Z,30.1889,-90.1683,1.784,1111122 
LUMCON,ioos:station:LUMCON:103:1,2009-03-19T07:00:00Z,30.1889,-90.1683,1.782,1111122 
LUMCON,ioos:station:LUMCON:103:1,2009-03-19T08:00:00Z,30.1889,-90.1683,1.789,1111122 
LUMCON,ioos:station:LUMCON:103:1,2009-03-19T11:00:00Z,30.1889,-90.1683,1.746,1111122 
LUMCON,ioos:station:LUMCON:103:1,2009-03-19T13:00:00Z,30.1889,-90.1683,1.704,1111122 
LUMCON,ioos:station:LUMCON:103:1,2009-03-19T14:00:00Z,30.1889,-90.1683,1.692,1111122 
LUMCON,ioos:station:LUMCON:103:1,2009-03-19T16:00:00Z,30.1889,-90.1683,1.673,1111122 